Location: Unspecified
(0.0000°N, 0.0000°E)
Time: 21:40:22
(UTC+00:00)

Vanguard 1 - Pass Details

Date: 09 December 2017
Orbit: 650 x 3833 km, 34.2° (Epoch: 24 April)

Event Time Altitude Azimuth Distance (km) Brightness Sun altitude
Rises 19:21:21 0° 298° (WNW) 2,989 13.1 -20.4°
Reaches altitude 10° 19:23:38 10° 294° (WNW) 2,038 12.3 -20.9°
Maximum altitude 19:27:56 56° 215° (SW) 818 9.9 -21.9°
Drops below altitude 10° 19:33:14 10° 136° (SE) 2,508 12.0 -23.1°
Enters shadow 19:33:55 - 135° (SE) 2,782 12.2 -23.2°
